User: anonymous   Login
Location: Oshawa
(43.9000°N, 78.8670°W)
Time: 15:47:14
(UTC-04:00)
Language:

Cosmos 1707 Rocket - Orbit

View from above orbital plane
View from above orbital plane
View from above satellite
View from above satellite

Ground track
Ground track

The orbit data is extracted from the following two-line orbital elements,

1 16327U 85113B   15188.12210414  .00000243  00000-0  26776-4 0  9996
2 16327 082.5334 037.0539 0019407 168.6147 309.9854 14.83159567596475
Epoch (UTC): 07 July 2015 02:55:49
Eccentricity: 0.0019407
inclination: 82.5334°
perigee height: 606 km
apogee height: 633 km
right ascension of ascending node: 37.0539°
argument of perigee: 168.6147°
revolutions per day: 14.83159567
mean anomaly at epoch: 309.9854°
orbit number at epoch: 59647

The dashed part of the orbit path shows where the satellite is in the earth's shadow,  

DLR